Regional Weather Roundup
Issued by NWS Green Bay, WI

Home | Current Version | Previous Version | Text Only | Print | Product List | Glossary On
Versions: 1 2 3 4 5 6 7 8 9 10 11 12 13 14 15 16 17 18 19 20 21 22 23 24 25 26 27 28 29 30 31 32 33 34 35 36 37 38 39 40 41 42 43 44 45 46 47 48 49 50
000
ASUS43 KGRB 180910
RWRGRB

NORTH-CENTRAL AND NORTHEAST WISCONSIN REGIONAL WEATHER ROUNDUP
NATIONAL WEATHER SERVICE GREEN BAY WI
400 AM CDT SAT APR 18 2015

WIZ005-009-010>012-018-019-181000-
NORTH CENTRAL WISCONSIN

CITY           SKY/WX    TMP DP  RH WIND       PRES   REMARKS
IRONWOOD       CLEAR     43  32  65 E7        30.14R
MANITOWISH WTR CLEAR     42  33  70 NE6       30.13R
ARBOR VITAE    CLEAR     45  33  62 N6        30.13R
EAGLE RIVER    CLEAR     42  30  62 NE8       30.12R
LAND O LAKES   CLEAR     42  32  67 N8        30.14R
RHINELANDER    CLEAR     47  30  51 N6        30.12R
PHILLIPS       CLEAR     47  31  55 NE10      30.11R
ANTIGO         CLEAR     45  31  59 N8        30.09R
TOMAHAWK       CLEAR     46  30  52 CALM      30.12R
MERRILL        CLEAR     48  30  49 NE3       30.09R
$$

WIZ013-073-181000-
NORTHEAST WISCONSIN

CITY           SKY/WX    TMP DP  RH WIND       PRES   REMARKS
IRON MOUNTAIN  CLEAR     45  33  63 N13       30.10R
MARINETTE      CLEAR     48  34  57 N13G21    30.06R
OCONTO         CLEAR     48  36  62 N9G16     30.07R
$$

WIZ017-030-035>037-045-181000-
CENTRAL WISCONSIN

CITY           SKY/WX    TMP DP  RH WIND       PRES   REMARKS
MEDFORD        CLEAR     48  30  50 NE8       30.08R
WAUSAU         CLEAR     52  29  41 N5        30.07R
MOSINEE        CLEAR     50  30  46 N10       30.08R
MARSHFIELD     CLEAR     55  28  35 NE14      30.05R
WISC RAPIDS    CLEAR     43  33  68 NE3       30.05R
STEVENS POINT  CLEAR     36  33  88 N7        30.06R
WAUPACA        CLEAR     44  39  83 CALM      30.03S
SHAWANO        CLEAR     54  36  52 N15G21    30.07R
CLINTONVILLE   CLEAR     50  37  62 N8        30.06R
$$

WIZ038-039-048-051-181000-
FOX VALLEY

CITY           SKY/WX    TMP DP  RH WIND       PRES   REMARKS
NWS GREEN BAY  CLEAR     45  41  86 N10G16    30.05R
APPLETON       CLEAR     52  36  54 N10       30.03R
OSHKOSH        PTCLDY    52  42  69 W3        30.02R
FOND DU LAC    PTCLDY    45  40  82 SW3       30.03R
$$

WIZ022-050-052-181000-
EAST CENTRAL WISCONSIN

CITY           SKY/WX    TMP DP  RH WIND       PRES   REMARKS
STURGEON BAY   CLEAR     45  34  65 N18G25    30.07R
MANITOWOC      PTCLDY    49  41  74 CALM      30.03R
SHEBOYGAN      PTCLDY    54  42  64 W6        30.02R
$$

LMZ563-521-522-541>543-181000-
LAKESHORE

STATION/POSITION TIME  TEMP    WIND        PRES    VSBY  WAVE
                       AIR SEA DIR/SP/G                  HT/PER
                 (UTC) (F)     (DEG/KT/KT) (MB)    (MI)  (FT/S)
SHEBOYGAN LKSHOR 0900   59     310/  6/  7 1017.0R
KEWAUNEE LKSHORE 0900          320/  3/  5   N/A
NORTHPORT PIER   0900   41     330/ 10/ 13 1018.3R
SISTER BAY LKSHO 0800   48      10/ 19/ 25   N/A
CHAMBERS ISLAND  0900   42     350/ 13/ 15 1018.3S
MENOMINEE LKSHOR 0900           10/ 13/ 16   N/A
$$



USA.gov is the U.S. government's official web portal to all federal, state and local government web resources and services.